KF0ZH Weather Reports


Display with metric or nautical units.
time (UTC)temp
F
wind
direction
speed
MPH
gust
MPH
rain 1hr
in
rain 24hr
in
rain mn
in
humidity
%
barometer
mb
20220929235307 66 90 0.0 0.0 0.00 0.00 0.00 47 1021.7
20220929234945 66 174 5.0 5.0 0.00 0.00 0.00 46 1021.7
20220929234201 67 170 7.0 7.0 0.00 0.00 0.00 46 1021.7
20220929233217 67 81 3.0 3.0 0.00 0.00 0.00 46 1021.9
20220929233207 67 95 0.0 0.0 0.00 0.00 0.00 46 1022.1
20220929232148 68 95 0.0 0.0 0.00 0.00 0.00 45 1022.1
20220929231117 68 189 5.0 7.0 0.00 0.00 0.00 44 1022.2
20220929231026 68 157 0.0 7.0 0.00 0.00 0.00 44 1022.3
20220929230955 68 157 0.0 7.0 0.00 0.00 0.00 44 1022.3
20220929230200 68 119 0.0 6.0 0.00 0.00 0.00 44 1022.4
20220929225809 69 163 3.0 8.0 0.00 0.00 0.00 44 1022.4
20220929225525 69 163 3.0 8.0 0.00 0.00 0.00 44 1022.4
20220929224222 69 182 0.0 0.0 0.00 0.00 0.00 44 1022.4
20220929224212 69 198 8.0 9.0 0.00 0.00 0.00 44 1022.5
20220929222645 69 157 5.0 9.0 0.00 0.00 0.00 43 1022.6
20220929222413 69 156 0.0 0.0 0.00 0.00 0.00 44 1022.7
20220929221116 69 168 8.0 8.0 0.00 0.00 0.00 45 1022.9
20220929220705 69 246 5.0 5.0 0.00 0.00 0.00 45 1022.9
20220929220011 69 146 0.0 11.0 0.00 0.00 0.00 45 1023.1
20220929215306 69 177 0.0 6.0 0.00 0.00 0.00 45 1023.1
20220929215258 69 146 6.0 9.0 0.00 0.00 0.00 44 1023.2
20220929215256 69 198 6.0 8.0 0.00 0.00 0.00 45 1023.1
20220929215247 69 172 7.0 8.0 0.00 0.00 0.00 44 1023.1
20220929215231 69 177 0.0 6.0 0.00 0.00 0.00 45 1023.1
20220929215223 69 146 6.0 9.0 0.00 0.00 0.00 44 1023.2
20220929215216 69 172 7.0 8.0 0.00 0.00 0.00 44 1023.1
20220929215210 69 198 6.0 8.0 0.00 0.00 0.00 45 1023.1
20220929213302 69 188 8.0 12.0 0.00 0.00 0.00 45 1023.3
20220929213257 69 120 0.0 7.0 0.00 0.00 0.00 46 1023.3
20220929213237 69 112 2.0 8.0 0.00 0.00 0.00 45 1023.2
20220929213230 69 188 8.0 12.0 0.00 0.00 0.00 45 1023.3
20220929213224 69 120 0.0 7.0 0.00 0.00 0.00 46 1023.3
20220929211614 69 139 4.0 10.0 0.00 0.00 0.00 45 1023.4
20220929210946 68 201 9.0 10.0 0.00 0.00 0.00 46 1023.4
20220929210016 69 177 6.0 11.0 0.00 0.00 0.00 46 1023.6
20220929210007 68 189 5.0 6.0 0.00 0.00 0.00 47 1023.6
20220929205951 68 177 11.0 15.0 0.00 0.00 0.00 47 1023.6
20220929205944 69 177 6.0 11.0 0.00 0.00 0.00 46 1023.6
20220929205941 68 165 0.0 11.0 0.00 0.00 0.00 47 1023.6
20220929205933 68 189 5.0 6.0 0.00 0.00 0.00 47 1023.6
20220929203847 69 215 0.0 6.0 0.00 0.00 0.00 46 1023.7
20220929203052 69 139 0.0 8.0 0.00 0.00 0.00 44 1023.7
20220929202231 69 187 4.0 12.0 0.00 0.00 0.00 45 1023.8
20220929201358 69 213 0.0 9.0 0.00 0.00 0.00 44 1024.0
20220929200711 69 241 8.0 8.0 0.00 0.00 0.00 45 1024.0
20220929200524 69 195 7.0 7.0 0.00 0.00 0.00 45 1024.1
20220929200521 69 129 5.0 8.0 0.00 0.00 0.00 44 1024.1
20220929200517 69 246 7.0 13.0 0.00 0.00 0.00 42 1024.2
20220929194719 68 153 6.0 12.0 0.00 0.00 0.00 45 1024.3
20220929194711 68 181 6.0 10.0 0.00 0.00 0.00 47 1024.3
20220929193052 67 158 2.0 13.0 0.00 0.00 0.00 49 1024.6
20220929191922 67 168 10.0 16.0 0.00 0.00 0.00 47 1024.7
20220929190701 67 201 5.0 11.0 0.00 0.00 0.00 48 1024.9
20220929190237 67 174 8.0 13.0 0.00 0.00 0.00 48 1024.9
20220929185625 67 167 3.0 15.0 0.00 0.00 0.00 48 1025.0
20220929185620 67 187 5.0 11.0 0.00 0.00 0.00 48 1025.2
20220929184841 67 151 0.0 0.0 0.00 0.00 0.00 49 1025.2
20220929184827 67 175 8.0 9.0 0.00 0.00 0.00 51 1025.6
20220929184825 66 149 0.0 6.0 0.00 0.00 0.00 52 1025.6
20220929184811 67 151 0.0 0.0 0.00 0.00 0.00 49 1025.2
20220929184803 66 172 0.0 7.0 0.00 0.00 0.00 51 1025.4
20220929184755 67 175 8.0 9.0 0.00 0.00 0.00 51 1025.6
20220929184751 66 149 0.0 6.0 0.00 0.00 0.00 52 1025.6
20220929182124 66 170 4.0 11.0 0.00 0.00 0.00 53 1025.8
20220929182118 66 195 9.0 10.0 0.00 0.00 0.00 53 1025.9
20220929182114 66 156 8.0 19.0 0.00 0.00 0.00 54 1025.9
20220929180112 65 194 7.0 15.0 0.00 0.00 0.00 55 1026.4
20220929180103 64 116 0.0 6.0 0.00 0.00 0.00 58 1026.4
20220929180058 64 182 8.0 13.0 0.00 0.00 0.00 55 1026.5
20220929180054 65 199 8.0 11.0 0.00 0.00 0.00 53 1026.1
20220929180051 65 178 5.0 8.0 0.00 0.00 0.00 55 1026.3
20220929180040 65 194 7.0 15.0 0.00 0.00 0.00 55 1026.4
20220929180031 64 116 0.0 6.0 0.00 0.00 0.00 58 1026.4
20220929180027 64 182 8.0 13.0 0.00 0.00 0.00 55 1026.5
20220929180022 65 172 4.0 12.0 0.00 0.00 0.00 55 1026.0
20220929180018 65 199 8.0 11.0 0.00 0.00 0.00 53 1026.1
20220929180013 65 178 5.0 8.0 0.00 0.00 0.00 55 1026.3
20220929180007 65 194 7.0 15.0 0.00 0.00 0.00 55 1026.4
20220929175958 64 116 0.0 6.0 0.00 0.00 0.00 58 1026.4
20220929175954 64 182 8.0 13.0 0.00 0.00 0.00 55 1026.5
20220929172809 64 208 10.0 13.0 0.00 0.00 0.00 56 1026.5
20220929172139 64 156 5.0 12.0 0.00 0.00 0.00 57 1026.5
20220929171624 63 188 7.0 7.0 0.00 0.00 0.00 57 1026.7
20220929171540 64 222 8.0 14.0 0.00 0.00 0.00 56 1026.7
20220929171536 63 188 7.0 7.0 0.00 0.00 0.00 57 1026.7
20220929170150 63 168 9.0 17.0 0.00 0.00 0.00 57 1026.9
20220929165610 62 174 13.0 14.0 0.00 0.00 0.00 57 1027.0
20220929164758 61 142 6.0 11.0 0.00 0.00 0.00 60 1027.1
20220929164551 60 180 5.0 9.0 0.00 0.00 0.00 61 1027.2
20220929163125 60 175 7.0 10.0 0.00 0.00 0.00 60 1027.5
20220929162358 59 160 11.0 11.0 0.00 0.00 0.00 61 1027.5
20220929162354 59 156 8.0 16.0 0.00 0.00 0.00 61 1027.6
20220929161408 59 150 7.0 15.0 0.00 0.00 0.00 61 1027.7
20220929160502 58 272 3.0 9.0 0.00 0.00 0.00 64 1027.9
20220929155607 58 156 10.0 13.0 0.00 0.00 0.00 64 1027.9
20220929155242 57 167 6.0 13.0 0.00 0.00 0.00 64 1028.0
20220929154726 57 161 5.0 8.0 0.00 0.00 0.00 65 1028.1
20220929154721 56 133 3.0 7.0 0.00 0.00 0.00 66 1028.2
20220929153523 55 185 3.0 12.0 0.00 0.00 0.00 67 1028.3
20220929152321 55 160 10.0 14.0 0.00 0.00 0.00 68 1028.3
20220929152120 55 160 10.0 14.0 0.00 0.00 0.00 68 1028.3
20220929152111 55 143 5.0 11.0 0.00 0.00 0.00 68 1028.3
20220929150749 54 215 11.0 15.0 0.00 0.00 0.00 68 1028.3
20220929150635 54 215 11.0 15.0 0.00 0.00 0.00 68 1028.3
20220929150330 54 187 4.0 7.0 0.00 0.00 0.00 69 1028.3
20220929145748 54 182 9.0 17.0 0.00 0.00 0.00 69 1028.3
20220929144932 53 182 4.0 13.0 0.00 0.00 0.00 71 1028.4
20220929144755 53 182 4.0 13.0 0.00 0.00 0.00 71 1028.4
20220929144139 53 192 7.0 7.0 0.00 0.00 0.00 71 1028.4
20220929144127 53 191 9.0 9.0 0.00 0.00 0.00 70 1028.4
20220929143252 53 178 5.0 11.0 0.00 0.00 0.00 71 1028.5
20220929143034 52 189 6.0 9.0 0.00 0.00 0.00 71 1028.4
20220929142919 52 189 6.0 9.0 0.00 0.00 0.00 71 1028.4
20220929142020 52 206 9.0 14.0 0.00 0.00 0.00 73 1028.5
20220929141355 52 165 4.0 10.0 0.00 0.00 0.00 74 1028.5
20220929141253 52 165 4.0 10.0 0.00 0.00 0.00 74 1028.5
20220929140335 50 212 4.0 10.0 0.00 0.00 0.00 76 1028.4
20220929140301 51 142 10.0 17.0 0.00 0.00 0.00 75 1028.5
20220929140253 50 212 4.0 10.0 0.00 0.00 0.00 76 1028.4
20220929135603 50 153 0.0 0.0 0.00 0.00 0.00 77 1028.5
20220929135509 50 153 0.0 0.0 0.00 0.00 0.00 77 1028.5
20220929131252 48 178 0.0 2.0 0.00 0.00 0.00 79 1028.8
20220929130614 47 206 0.0 6.0 0.00 0.00 0.00 79 1028.9
20220929130348 47 150 0.0 8.0 0.00 0.00 0.00 80 1028.8
20220929125325 46 77 0.0 3.0 0.00 0.00 0.00 82 1029.1
20220929123430 45 184 0.0 0.0 0.00 0.00 0.00 82 1028.9
20220929123343 45 184 0.0 0.0 0.00 0.00 0.00 82 1028.9
20220929122359 45 144 0.0 0.0 0.00 0.00 0.00 81 1028.8
20220929122327 45 144 0.0 0.0 0.00 0.00 0.00 81 1028.8
20220929122011 45 158 0.0 0.0 0.00 0.00 0.00 81 1028.8
20220929121917 45 158 0.0 0.0 0.00 0.00 0.00 81 1028.8
20220929121240 45 158 0.0 0.0 0.00 0.00 0.00 81 1028.8
20220929120802 46 158 0.0 0.0 0.00 0.00 0.00 80 1028.8
20220929120727 46 158 0.0 0.0 0.00 0.00 0.00 80 1028.8
20220929120553 46 158 0.0 0.0 0.00 0.00 0.00 80 1028.8
20220929115226 46 147 0.0 0.0 0.00 0.00 0.00 80 1028.8
20220929114902 46 147 0.0 0.0 0.00 0.00 0.00 79 1028.7
20220929114802 46 147 0.0 0.0 0.00 0.00 0.00 79 1028.7
20220929114759 46 147 0.0 0.0 0.00 0.00 0.00 79 1028.7
20220929114104 46 147 0.0 0.0 0.00 0.00 0.00 79 1028.8
20220929114033 46 147 0.0 0.0 0.00 0.00 0.00 79 1028.8
20220929113942 46 147 0.0 0.0 0.00 0.00 0.00 79 1028.8
20220929113212 46 147 0.0 0.0 0.00 0.00 0.00 79 1028.8
20220929112252 46 147 0.0 0.0 0.00 0.00 0.00 78 1028.8
20220929112157 46 147 0.0 0.0 0.00 0.00 0.00 78 1028.8
20220929110405 46 147 0.0 0.0 0.00 0.00 0.00 78 1028.7
20220929105042 46 147 0.0 0.0 0.00 0.00 0.00 77 1028.7
20220929103847 47 147 0.0 4.0 0.00 0.00 0.00 77 1028.8
20220929101957 47 181 0.0 0.0 0.00 0.00 0.00 77 1028.9
20220929101902 47 181 0.0 0.0 0.00 0.00 0.00 77 1028.9
20220929101746 47 181 0.0 0.0 0.00 0.00 0.00 77 1028.9
20220929100803 47 177 3.0 6.0 0.00 0.00 0.00 76 1028.8
20220929100226 47 206 0.0 0.0 0.00 0.00 0.00 76 1028.8
20220929095940 47 170 2.0 6.0 0.00 0.00 0.00 75 1028.8
20220929093843 47 165 6.0 8.0 0.00 0.00 0.00 75 1028.7
20220929092917 47 216 0.0 7.0 0.00 0.00 0.00 75 1028.7
20220929092853 47 174 0.0 7.0 0.00 0.00 0.00 75 1028.8
20220929092845 47 216 0.0 7.0 0.00 0.00 0.00 75 1028.7
20220929091745 47 189 4.0 4.0 0.00 0.00 0.00 76 1028.8
20220929091323 47 165 0.0 0.0 0.00 0.00 0.00 76 1028.8
20220929091250 47 165 0.0 0.0 0.00 0.00 0.00 76 1028.8
20220929091245 47 165 0.0 0.0 0.00 0.00 0.00 76 1028.8
20220929090248 47 165 0.0 2.0 0.00 0.00 0.00 75 1028.8
20220929085811 47 184 5.0 5.0 0.00 0.00 0.00 75 1028.9
20220929085242 47 209 0.0 0.0 0.00 0.00 0.00 75 1028.9
20220929085116 47 209 0.0 0.0 0.00 0.00 0.00 75 1028.9
20220929084722 47 158 0.0 5.0 0.00 0.00 0.00 75 1028.9
20220929084538 47 158 0.0 5.0 0.00 0.00 0.00 75 1028.9
20220929084503 47 219 0.0 5.0 0.00 0.00 0.00 75 1028.9
20220929084459 47 158 0.0 5.0 0.00 0.00 0.00 75 1028.9
20220929081834 48 177 8.0 9.0 0.00 0.00 0.00 74 1029.2
20220929081408 48 201 5.0 8.0 0.00 0.00 0.00 74 1029.2
20220929081018 48 206 0.0 5.0 0.00 0.00 0.00 74 1029.2
20220929080946 48 206 0.0 5.0 0.00 0.00 0.00 74 1029.2
20220929080904 48 206 0.0 5.0 0.00 0.00 0.00 74 1029.2
20220929080037 48 157 4.0 7.0 0.00 0.00 0.00 73 1029.3
20220929080033 48 199 9.0 10.0 0.00 0.00 0.00 73 1029.4
20220929074131 48 140 0.0 7.0 0.00 0.00 0.00 73 1029.4
20220929074125 48 133 0.0 9.0 0.00 0.00 0.00 73 1029.4
20220929073238 48 227 0.0 9.0 0.00 0.00 0.00 73 1029.4
20220929072731 48 185 4.0 7.0 0.00 0.00 0.00 73 1029.4
20220929072454 48 185 4.0 7.0 0.00 0.00 0.00 73 1029.4
20220929071959 48 143 0.0 5.0 0.00 0.00 0.00 73 1029.4
20220929071827 48 143 0.0 5.0 0.00 0.00 0.00 73 1029.4
20220929071110 48 144 2.0 8.0 0.00 0.00 0.00 73 1029.4
20220929070410 48 160 0.0 4.0 0.00 0.00 0.00 73 1029.5
20220929070305 48 160 0.0 4.0 0.00 0.00 0.00 73 1029.5
20220929064559 48 175 6.0 8.0 0.00 0.00 0.00 73 1029.5
20220929063132 48 164 3.0 8.0 0.00 0.00 0.00 72 1029.5
20220929062143 48 178 0.0 4.0 0.00 0.00 0.00 73 1029.5
20220929055447 49 151 5.0 5.0 0.00 0.00 0.00 72 1029.3
20220929055324 49 151 5.0 5.0 0.00 0.00 0.00 72 1029.3
20220929054252 49 151 0.0 0.0 0.00 0.00 0.00 72 1029.4
20220929053223 49 151 0.0 0.0 0.00 0.00 0.00 71 1029.5
20220929053150 49 151 0.0 0.0 0.00 0.00 0.00 71 1029.5
20220929053021 49 151 0.0 5.0 0.00 0.00 0.00 71 1029.5
20220929052835 49 151 0.0 5.0 0.00 0.00 0.00 71 1029.5
20220929052621 49 133 0.0 5.0 0.00 0.00 0.00 71 1029.5
20220929052618 50 142 0.0 3.0 0.00 0.00 0.00 71 1029.5
20220929052550 49 133 0.0 5.0 0.00 0.00 0.00 71 1029.5
20220929052544 50 142 0.0 3.0 0.00 0.00 0.00 71 1029.5
20220929051338 50 168 4.0 6.0 0.00 0.00 0.00 71 1029.5
20220929051248 50 142 0.0 3.0 0.00 0.00 0.00 71 1029.5
20220929051245 50 168 4.0 6.0 0.00 0.00 0.00 71 1029.5
20220929050722 49 167 4.0 4.0 0.00 0.00 0.00 72 1029.6
20220929050608 49 167 4.0 4.0 0.00 0.00 0.00 72 1029.6
20220929050521 49 167 4.0 4.0 0.00 0.00 0.00 72 1029.6
20220929050450 49 167 4.0 4.0 0.00 0.00 0.00 72 1029.6
20220929045636 49 135 0.0 0.0 0.00 0.00 0.00 74 1029.6
20220929045634 48 50 0.0 0.0 0.00 0.00 0.00 75 1029.6
20220929044635 49 50 0.0 0.0 0.00 0.00 0.00 75 1029.5
20220929044446 48 50 0.0 0.0 0.00 0.00 0.00 75 1029.6
20220929044441 49 50 0.0 0.0 0.00 0.00 0.00 75 1029.5
20220929040233 49 50 0.0 0.0 0.00 0.00 0.00 75 1029.7
20220929035208 49 50 0.0 0.0 0.00 0.00 0.00 75 1029.6
20220929033811 49 196 0.0 0.0 0.00 0.00 0.00 75 1029.5
20220929032627 49 196 0.0 0.0 0.00 0.00 0.00 74 1029.5
20220929032623 49 196 0.0 0.0 0.00 0.00 0.00 75 1029.5
20220929031206 50 196 0.0 0.0 0.00 0.00 0.00 74 1029.5
20220929030808 50 196 0.0 0.0 0.00 0.00 0.00 73 1029.5
20220929030608 50 196 0.0 0.0 0.00 0.00 0.00 73 1029.5
20220929030438 50 196 0.0 0.0 0.00 0.00 0.00 73 1029.5
20220929030039 50 196 0.0 0.0 0.00 0.00 0.00 71 1029.6
20220929025031 51 196 0.0 0.0 0.00 0.00 0.00 71 1029.6
20220929023709 51 196 0.0 0.0 0.00 0.00 0.00 71 1029.6
20220929023207 51 196 0.0 0.0 0.00 0.00 0.00 71 1029.6
20220929022652 51 196 0.0 0.0 0.00 0.00 0.00 70 1029.6
20220929022647 51 196 0.0 0.0 0.00 0.00 0.00 70 1029.6
20220929021254 51 196 0.0 0.0 0.00 0.00 0.00 70 1029.6
20220929020651 52 196 0.0 0.0 0.00 0.00 0.00 70 1029.5
20220929020449 52 196 0.0 0.0 0.00 0.00 0.00 70 1029.5
20220929015927 52 196 0.0 0.0 0.00 0.00 0.00 69 1029.5
20220929015331 52 196 0.0 0.0 0.00 0.00 0.00 69 1029.6
20220929015204 52 196 0.0 0.0 0.00 0.00 0.00 69 1029.6
20220929014731 52 196 0.0 0.0 0.00 0.00 0.00 68 1029.6
20220929014544 52 196 0.0 0.0 0.00 0.00 0.00 68 1029.6
20220929014018 52 196 0.0 0.0 0.00 0.00 0.00 67 1029.5
20220929013247 52 196 0.0 0.0 0.00 0.00 0.00 67 1029.5
20220929013243 52 196 0.0 0.0 0.00 0.00 0.00 67 1029.5
20220929012250 53 196 0.0 0.0 0.00 0.00 0.00 67 1029.5
20220929012243 53 196 0.0 0.0 0.00 0.00 0.00 67 1029.4
20220929011018 53 196 0.0 0.0 0.00 0.00 0.00 66 1029.3
20220929010404 54 196 0.0 0.0 0.00 0.00 0.00 64 1029.5
20220929010331 54 196 0.0 0.0 0.00 0.00 0.00 64 1029.5